SCP
0 0 0 0 0 0 0 0 0 0 0 0 0 0 0 0 0 0 0 0 0 0 0 0 0 0 0 0 0 0 0 0 0 0 0 0 0 0 0 0 0 0 0 0
0 0 0 0 0 0 0 0 0 0 0 0 0 0 0 0 0 0 0 0 0 0 0 0 0 0 0 0 0 0 0 0 0 0 0 0 0 0 0 0 0 0 0 0
0 0 0 0 0 0 0 0 0 0 0 0 0 0 0 0 0 0 0 0 0 0 0 0 0 0 0 0 0 0 0 0 0 0 0 0 0 0 0 0 0 0 0 0
0 0 0 0 0 0 0 0 0 0 0 0 0 0 0 0 0 0 0 0 0 0 0 0 0 0 0 0 0 0 0 0 0 0 0 0 0 0 0 0 0 0 0 0
0 0 0 0 0 0 0 0 0 0 0 0 0 0 0 0 0 0 0 0 0 0 0 0 0 0 0 0 0 0 0 0 0 0 0 0 0 0 0 0 0 0 0 0
0 0 0 0 0 0 0 0 0 0 0 0 0 0 0 0 0 0 0 0 0 0 0 0 0 0 0 0 0 0 0 0 0 0 0 0 0 0 0 0 0 0 0 0
0 0 0 0 0 0 0 0 0 0 0 0 0 0 0 0 0 0 0 0 0 0 0 0 0 0 0 0 0 0 0 0 0 0 0 0 0 0 0 0 0 0 0 0
0 0 0 0 0 0 0 0 0 0 0 0 0 0 0 0 0 0 0 0 0 0 0 0 0 0 0 0 0 0 0 0 0 0 0 0 0 0 0 0 0 0 0 0
0 0 0 0 0 0 0 0 0 0 0 0 0 0 0 0 0 0 0 0 0 0 0 0 0 0 0 0 0 0 0 0 0 0 0 0 0 0 0 0 0 0 0 0
0 0 0 0 0 0 0 0 0 0 0 0 0 0 0 0 0 0 0 0 0 0 0 0 0 0 0 0 0 0 0 0 0 0 0 0 0 0 0 0 0 0 0 0
0 0 0 0 0 0 0 0 0 0 0 0 0 0 0 0 0 0 0 0 0 0 0 0 0 0 0 0 0 0 0 0 0 0 0 0 0 0 0 0 0 0 0 0
0 0 0 0 0 0 0 0 0 0 0 0 0 0 0 0 0 0 0 0 0 0 0 0 0 0 0 0 0 0 0 0 0 0 0 0 0 0 0 0 0 0 0 0
0 0 0 0 0 0 0 0 0 0 0 0 0 0 0 0 0 0 0 0 0 0 0 0 0 0 0 0 0 0 0 0 0 0 0 0 0 0 0 0 0 0 0 0
0 0 0 0 0 0 0 0 0 0 0 0 0 0 0 0 0 0 0 0 0 0 0 0 0 0 0 0 0 0 0 0 0 0 0 0 0 0 0 0 0 0 0 0
0 0 0 0 0 0 0 0 0 0 0 0 0 0 0 0 0 0 0 0 0 0 0 0 0 0 0 0 0 0 0 0 0 0 0 0 0 0 0 0 0 0 0 0
0 0 0 0 0 0 0 0 0 0 0 0 0 0 0 0 0 0 0 0 0 0 0 0 0 0 0 0 0 0 0 0 0 0 0 0 0 0 0 0 0 0 0 0
0 0 0 0 0 0 0 0 0 0 0 0 0 0 0 0 0 0 0 0 0 0 0 0 0 0 0 0 0 0 0 0 0 0 0 0 0 0 0 0 0 0 0 0
0 0 0 0 0 0 0 0 0 0 0 0 0 0 0 0 0 0 0 0 0 0 0 0 0 0 0 0 0 0 0 0 0 0 0 0 0 0 0 0 0 0 0 0
0 0 0 0 0 0 0 0 0 0 0 0 0 0 0 0 0 0 0 0 0 0 0 0 0 0 0 0 0 0 0 0 0 0 0 0 0 0 0 0 0 0 0 0
0 0 0 0 0 0 0 0 0 0 0 0 0 0 0 0 0 0 0 0 0 0 0 0 0 0 0 0 0 0 0 0 0 0 0 0 0 0 0 0 0 0 0 0
0 0 0 0 0 0 0 0 0 0 0 0 0 0 0 0 0 0 0 0 0 0 0 0 0 0 0 0 0 0 0 0 0 0 0 0 0 0 0 0 0 0 0 0
0 0 0 0 0 0 0 0 0 0 0 0 0 0 0 0 0 0 0 0 0 0 0 0 0 0 0 0 0 0 0 0 0 0 0 0 0 0 0 0 0 0 0 0
0 0 0 0 0 0 0 0 0 0 0 0 0 0 0 0 0 0 0 0 0 0 0 0 0 0 0 0 0 0 0 0 0 0 0 0 0 0 0 0 0 0 0 0
0 0 0 0 0 -0 -0 -0 0 0 0 0 0 0 0 0 0 0 0 0 0 0 0 0 0 0 0 0 0 0 0 0 0 0 0 0 0 0 0 0 0 0 0 0
0 0 0 0 0 0 -0 -0 0 0 0 0 0 0 0 0 0 0 0 0 0 0 0 0 0 0 0 0 0 0 0 0 0 0 0 0 0 0 0 0 0 0 0 0
0 0 0 0 0 0 0 0 0 0 0 0 0 0 0 0 0 0 0 0 0 0 0 0 0 0 0 0 0 0 0 0 0 0 0 0 0 0 0 0 0 0 0 0
0 0 0 0 0 0 0 0 0 0 0 0 0 0 0 0 0 0 0 0 0 0 0 0 0 0 0 0 0 0 0 0 0 0 0 0 0 0 0 0 0 0 0 0
Wind_Speed
4 4 2 3 3 5 4 7 8 7 7 8 7 6 4 3 3 3 3 3 3 3 4 4 4 5 5 5 5 5 5 6 6 7 7 7 7 7 7 7 8 7 7 8
2 2 1 1 2 4 3 4 4 2 6 5 2 3 3 4 5 5 5 5 5 4 4 5 5 5 5 5 6 5 6 7 7 7 7 8 8 8 8 8 8 7 8 8
2 3 3 3 4 5 4 4 7 7 7 3 3 5 6 7 6 6 7 6 6 5 5 5 6 5 5 6 5 5 6 7 7 7 8 8 9 8 8 8 7 8 8 8
2 2 3 9 3 4 4 3 5 4 4 6 6 4 3 5 7 7 6 6 6 5 5 5 5 5 5 5 5 6 7 7 8 8 9 9 9 9 8 7 7 7 8 8
4 2 5 6 3 6 5 4 5 6 5 3 3 3 4 5 7 7 7 6 5 5 4 4 5 5 5 6 6 6 7 8 8 8 9 9 9 9 8 7 8 7 8 8
4 3 5 8 4 5 5 5 6 8 8 6 7 2 6 6 7 7 6 5 4 4 3 5 5 4 4 6 6 7 8 8 8 8 8 9 9 9 7 7 8 8 8 8
4 4 8 7 4 7 4 10 6 10 9 10 10 9 5 3 5 5 5 5 4 4 4 5 4 3 5 5 7 7 7 8 8 8 8 9 8 7 8 7 7 7 8 8
5 3 9 4 9 10 11 4 6 9 9 10 9 5 4 4 5 5 5 5 4 4 5 5 4 3 5 6 7 6 7 8 8 8 8 7 7 8 7 7 7 7 7 8
8 8 6 5 8 6 5 6 7 9 8 9 7 6 6 6 6 6 6 5 4 4 5 5 4 3 5 6 6 6 7 8 8 9 8 7 7 8 7 6 5 6 6 6
4 7 5 6 5 4 6 6 7 8 8 10 9 8 7 6 6 6 5 5 4 4 5 5 4 4 5 6 5 6 7 8 7 8 8 8 6 5 6 6 6 6 6 6
4 7 5 5 6 6 5 5 5 6 8 10 10 8 8 7 7 6 5 4 4 4 5 6 5 5 5 5 4 5 7 7 7 7 7 7 7 6 6 6 6 6 6 6
7 8 6 8 6 6 7 8 9 8 7 6 8 9 8 7 6 5 5 4 4 5 5 6 5 5 5 4 4 5 6 6 6 6 6 6 7 8 7 8 10 10 10 8
7 4 5 6 3 6 8 8 8 10 10 8 7 8 7 6 5 5 5 5 6 6 6 5 5 6 5 4 4 5 6 6 6 6 6 6 6 6 8 8 8 8 7 8
6 3 4 4 5 6 7 7 7 6 6 6 6 5 5 5 4 5 7 7 6 5 5 5 5 6 5 4 4 5 6 7 6 6 6 6 6 6 6 6 8 7 7 7
4 4 5 3 1 2 3 5 5 5 5 4 4 5 6 6 7 7 6 5 4 5 5 5 5 6 4 3 4 5 5 5 5 5 5 5 6 5 5 6 6 6 6 6
5 3 2 2 1 1 3 4 4 5 5 5 5 6 7 7 6 5 5 4 5 6 6 5 6 5 3 3 4 4 4 8 8 5 5 5 5 5 5 5 6 6 6 5
4 4 3 3 2 1 1 2 3 3 3 4 6 5 4 4 4 5 6 5 6 6 5 5 5 4 3 3 3 3 4 6 9 6 4 5 5 5 5 5 5 6 5 6
5 4 3 2 2 2 2 2 1 1 2 3 2 2 5 6 8 8 6 4 4 4 5 5 5 3 3 3 3 3 3 4 4 4 4 4 5 5 5 5 6 6 6 6
9 9 9 8 6 4 3 2 1 1 1 1 3 5 7 8 8 6 4 4 6 7 6 5 6 4 4 4 3 2 3 4 4 4 4 5 5 4 5 5 5 5 5 5
9 8 8 7 7 6 4 3 3 2 2 3 4 5 6 7 6 5 5 7 8 6 5 4 4 4 3 3 3 2 3 3 3 4 3 4 4 5 5 5 5 5 5 5
7 8 7 7 6 5 4 3 3 3 4 3 5 7 7 6 5 5 5 7 7 5 4 5 4 3 3 3 3 2 2 2 3 3 3 3 4 4 5 5 5 5 5 5
6 6 6 6 6 6 6 4 4 5 5 4 4 5 5 5 5 5 7 7 5 6 5 4 4 4 4 3 2 2 2 2 2 2 3 3 3 4 4 5 5 5 5 4
4 4 5 6 6 6 7 5 4 4 5 5 5 5 6 6 5 5 6 5 4 7 6 5 5 6 5 3 2 2 2 2 2 2 3 3 3 3 4 4 4 4 4 5
4 5 5 5 4 4 6 6 6 4 5 5 5 5 5 4 4 5 5 4 6 8 5 5 7 7 5 2 2 1 2 2 2 2 3 2 2 3 3 3 4 4 4 5
4 4 4 5 5 4 5 6 6 5 5 5 6 5 3 3 4 4 3 4 6 7 4 6 7 7 4 2 2 1 1 2 2 2 2 2 2 2 3 3 3 4 4 4
4 4 4 4 3 3 4 4 4 4 4 5 5 5 4 3 3 2 2 3 5 5 4 3 4 5 3 3 2 1 1 1 2 2 2 2 3 3 2 3 4 3 4 4
4 3 3 3 3 3 3 3 3 4 4 4 5 5 4 3 2 1 1 2 3 3 3 3 3 3 3 3 2 2 1 1 1 1 1 2 2 2 2 3 3 3 3 4
Wind_Direction
233 248 222 228 202 177 185 180 179 222 222 237 221 212 211 190 181 198 239 258 264 269 279 289 295 297 296 294 298 304 307 302 294 293 293 293 293 292 292 289 288 283 282 282
340 342 229 238 220 172 183 176 193 203 245 245 195 148 173 190 196 221 245 256 264 271 277 282 284 286 290 290 294 301 298 294 295 300 302 301 298 296 295 293 291 288 284 283
286 329 42 275 230 190 201 196 169 196 230 183 176 197 205 205 210 225 241 252 260 264 263 268 272 274 278 282 296 302 297 297 299 302 303 302 302 302 297 294 291 291 287 284
121 63 237 249 266 186 179 216 203 213 213 189 201 214 223 202 205 226 238 248 255 256 263 270 273 277 279 288 296 297 297 298 301 303 303 304 303 299 295 291 292 289 287 286
122 170 279 287 214 157 156 244 212 196 197 169 106 52 307 226 207 217 227 234 241 245 250 266 278 281 290 294 298 299 299 301 303 304 305 306 303 298 294 293 295 291 287 286
129 159 239 253 224 155 106 278 225 184 183 160 124 147 260 231 205 221 232 236 243 255 259 270 276 284 286 289 297 296 297 299 301 300 300 299 296 294 291 290 289 291 289 285
155 202 257 247 155 129 163 243 208 181 179 166 180 202 225 199 198 211 225 238 243 248 255 262 274 283 279 286 285 286 295 299 301 299 296 292 290 289 292 292 293 292 292 291
146 182 257 201 142 179 212 208 170 178 179 182 204 217 218 208 213 220 232 244 243 244 259 269 272 264 274 279 279 291 298 301 302 301 299 303 299 298 296 294 296 299 300 302
186 211 237 202 202 215 170 174 183 181 186 182 192 209 209 214 219 225 230 237 237 235 260 276 271 248 263 273 288 300 304 304 304 306 303 299 298 301 304 298 294 296 298 299
248 269 256 237 234 214 193 194 188 179 173 171 186 201 207 213 220 225 231 234 233 235 256 272 273 261 255 275 291 299 302 305 307 310 310 309 303 296 295 295 296 296 296 298
265 278 295 273 227 208 193 183 169 171 177 181 183 197 201 209 218 222 227 232 224 227 246 261 271 272 272 277 291 298 301 304 308 308 306 309 308 297 291 280 268 275 284 283
229 234 210 246 236 185 178 190 182 172 180 187 188 198 199 209 214 214 221 224 230 238 245 259 268 275 279 279 282 292 302 307 307 308 310 310 313 313 296 281 287 275 262 264
238 248 219 255 242 194 191 190 180 179 182 189 197 196 194 202 209 211 217 220 227 233 239 249 260 271 276 277 282 285 291 299 302 305 308 311 312 314 318 320 314 304 294 289
251 231 251 240 224 208 193 182 172 178 188 187 187 182 184 196 206 213 222 224 226 231 239 242 254 266 271 275 283 290 295 299 303 301 303 306 308 308 308 313 320 321 317 310
278 211 228 271 288 171 161 142 152 189 198 199 183 183 189 198 214 223 225 222 219 233 242 243 253 264 268 273 284 293 300 300 301 302 304 306 307 309 311 314 314 314 318 323
313 348 9 23 33 134 128 149 179 211 206 202 199 208 208 210 218 227 224 206 207 232 240 242 251 259 262 271 287 295 298 307 316 309 312 317 319 320 322 321 320 323 327 328
34 23 33 28 18 56 141 177 200 215 211 212 218 215 206 204 224 240 237 222 221 234 236 234 244 254 254 260 272 286 297 309 320 319 315 318 321 322 321 321 322 324 323 323
57 54 61 76 61 43 18 2 335 271 241 247 233 199 203 209 223 233 231 219 226 246 244 234 233 238 248 254 258 270 285 295 304 309 315 320 322 320 322 324 326 329 330 334
40 41 41 42 45 54 45 15 309 272 245 202 203 221 228 231 232 233 215 204 219 240 247 228 221 220 244 259 271 269 285 297 308 312 315 321 327 331 332 332 330 331 334 339
35 33 34 32 33 40 29 353 320 300 270 228 227 235 241 243 233 221 211 224 228 225 221 207 204 214 236 256 274 269 283 296 306 314 320 327 330 332 333 334 334 336 341 343
23 21 21 15 7 360 351 333 315 291 274 244 229 238 244 249 233 213 213 240 244 218 206 200 197 208 222 240 260 262 277 292 304 311 316 321 323 329 333 334 337 340 343 343
7 7 2 356 350 339 329 323 316 308 305 293 268 259 256 254 241 228 228 235 237 190 189 195 200 208 213 215 228 253 273 289 301 306 310 316 321 327 331 336 339 342 344 344
349 347 342 338 328 314 315 322 323 315 304 294 281 270 259 255 238 227 251 240 208 194 192 196 195 199 194 186 213 242 266 283 296 302 307 314 320 323 328 334 339 340 342 345
335 332 324 319 323 331 329 322 321 311 298 288 278 268 262 270 270 245 241 228 198 192 196 194 187 183 174 176 197 234 266 279 289 297 306 316 323 326 329 334 338 341 344 348
322 324 329 336 338 324 310 314 323 325 325 318 312 305 286 253 251 261 238 210 194 184 188 186 182 175 170 173 186 209 246 270 287 295 307 320 326 329 334 338 341 343 347 350
316 312 305 295 286 292 305 314 315 313 317 319 316 315 316 306 286 276 239 205 188 181 177 173 175 174 174 172 180 201 231 275 294 301 315 323 329 333 339 347 352 355 354 353
312 312 313 321 316 312 312 311 310 309 308 306 304 307 314 315 314 297 233 193 179 179 174 167 168 172 169 168 173 184 204 248 291 310 328 340 340 343 350 359 4 4 359 357